STARLINK-3993 (52692 NORAD) Tracking and Keplerian Element Data

This shows tracking and keplerian element data for the satellite.

Feedback or suggestion? Click here.




ElementValue
Catalog52692
NameSTARLINK-3993
Epoch Orbit130
Epoch Day192.91667824
Epoch Year2022
RAAN28.8333
Inclination53.2175
Eccentricity0.0001806
Argument of Perigee36.7814
Mean Anonmoly92.7066
Mean Motion15.53873694
Decay Rate-0.01059311
L11 52692U 22053AN 22192.91667824 -.01059311 00000+0 -17792-1 0 9993
L22 52692 53.2175 28.8333 0001806 36.7814 92.7066 15.53873694 1305

Live tracking and technical data element details for STARLINK-3993 (NORAD 52692). STARLINK-3993 can be tracked NOW for your location showing map with azimuth and elevation plus other details from your city location.

Track the satellite on the map from your city or location and see movement details for azimuth, elevation, latitude, longitude, range, height, and movement on the map or in text.







IsCatalogInMostPopularTable: catalog: 52692, numindb: 8
Update: records affected: 1



GetName: 52692 STARLINK-3993

Hit Count: updated at: Sun, 14 Aug 2022 00:47:28 GMT